W1LH-13 Weather Reports


time (UTC)temp
F
wind
direction
speed
knots
gust
knots
rain 1hr
in
rain 24hr
in
rain mn
in
humidity
%
barometer
mb
20260508100837 40 263 5.2 8.7 0.00 0.00 0.00 82 1003.9
20260508100322 39 275 6.1 7.8 0.00 0.00 0.00 83 1003.8
20260508095826 39 298 5.2 7.0 0.00 0.00 0.00 84 1002.8
20260508095330 38 268 5.2 7.8 0.00 0.00 0.00 85 1002.0
20260508094835 38 269 5.2 7.8 0.00 0.00 0.00 86 1002.0
20260508094319 37 273 5.2 7.0 0.00 0.00 0.00 87 1003.8
20260508093825 36 285 5.2 7.0 0.00 0.00 0.00 88 1003.7
20260508093330 35 288 5.2 7.0 0.00 0.00 0.00 88 1003.7
20260508092834 35 289 5.2 6.1 0.00 0.00 0.00 88 1003.8
20260508092322 35 272 4.3 6.1 0.00 0.00 0.00 89 1003.8
20260508091847 34 277 4.3 6.1 0.00 0.00 0.00 88 1003.8
20260508091330 34 284 284.2 284.2 0.00 0.00 0.00 89 1003.8
20260508090836 33 286 4.3 6.1 0.00 0.00 0.00 88 1003.7
20260508090341 33 290 4.3 4.3 0.00 0.00 0.00 87 1003.6
20260508085824 33 280 4.3 5.2 0.00 0.02 0.00 87 1003.6
20260508085327 34 265 1.7 3.5 0.00 0.02 0.00 87 1003.7
20260508084833 34 281 2.6 3.5 0.00 0.02 0.00 86 1003.7
20260508084337 34 279 1.7 2.6 0.00 0.02 0.00 86 1003.6
20260508083821 35 279 1.7 2.6 0.00 0.02 0.00 86 1003.5
20260508083346 35 279 1.7 2.6 0.00 0.02 0.00 86 1003.5
20260508082850 35 296 0.9 2.6 0.00 0.02 0.00 86 1003.5
20260508082333 35 296 1.7 3.5 0.00 0.02 0.00 86 1003.5
20260508081820 35 296 2.6 3.5 0.00 0.02 0.00 86 1003.5
20260508081325 35 296 2.6 3.5 0.00 0.02 0.00 85 1003.6
20260508080829 36 300 1.7 2.6 0.00 0.02 0.00 85 1003.5
20260508080333 36 300 1.7 3.5 0.00 0.02 0.00 85 1003.5
20260508075838 35 307 2.6 3.5 0.00 0.13 0.00 85 1003.4
20260508075323 35 307 3.5 4.3 0.00 0.13 0.00 85 1003.4
20260508074827 35 302 3.5 4.3 0.00 0.13 0.00 84 1003.5
20260508074333 36 298 3.5 5.2 0.00 0.13 0.00 83 1003.5
20260508073859 36 279 2.6 4.3 0.00 0.13 0.00 82 1003.5
20260508073321 36 272 2.6 3.5 0.00 0.13 0.00 81 1003.5
20260508072846 37 271 1.7 2.6 0.00 0.13 0.00 81 1003.6
20260508072348 37 271 1.7 2.6 0.00 0.13 0.00 80 1003.6
20260508071852 38 284 1.7 2.6 0.00 0.13 0.00 80 1003.7
20260508071336 38 284 1.7 2.6 0.00 0.13 0.00 79 1003.6
20260508070824 38 284 0.9 2.6 0.00 0.13 0.00 79 1003.5
20260508070328 38 284 1.7 2.6 0.00 0.13 0.00 78 1003.5
20260508065851 38 278 1.7 2.6 0.00 0.15 0.00 77 1003.5
20260508065335 39 292 1.7 2.6 0.00 0.15 0.00 76 1003.5
20260508064840 40 292 1.7 2.6 0.00 0.15 0.00 76 1003.6
20260508064324 40 292 0.9 2.6 0.00 0.15 0.00 75 1003.5
20260508063849 41 292 0.0 1.7 0.00 0.15 0.00 76 1003.5
20260508063352 41 292 0.9 2.6 0.00 0.15 0.00 76 1003.6
20260508062835 41 292 1.7 4.3 0.00 0.15 0.00 76 1003.6
20260508062339 41 296 2.6 4.3 0.00 0.15 0.00 76 1003.5
20260508061823 41 288 3.5 4.3 0.00 0.15 0.00 76 1003.5
20260508061328 41 295 3.5 5.2 0.00 0.15 0.00 75 1003.6
20260508060833 41 288 3.5 3.5 0.00 0.15 0.00 74 1003.6
20260508060322 42 302 2.6 3.5 0.00 0.15 0.00 72 1003.7
20260508055826 42 313 1.7 2.6 0.00 0.16 0.00 72 1003.8
20260508055332 42 313 0.9 2.6 0.00 0.16 0.00 72 1003.8
20260508054835 43 313 0.9 3.5 0.00 0.16 0.00 72 1003.8
20260508054340 42 311 2.6 4.3 0.00 0.16 0.00 72 1003.8
20260508053823 42 279 2.6 6.1 0.00 0.16 0.00 72 1003.8
20260508053328 42 312 4.3 5.2 0.00 0.16 0.00 72 1003.8
20260508052833 42 286 5.2 6.1 0.00 0.16 0.00 72 1003.9
20260508052337 43 300 4.3 7.0 0.00 0.16 0.00 71 1003.8
20260508051821 43 296 4.3 6.1 0.00 0.16 0.00 71 1003.9
20260508051326 43 278 4.3 5.2 0.00 0.16 0.00 70 1003.9
20260508050836 44 276 3.5 4.3 0.00 0.16 0.00 69 1004.0
20260508050341 44 277 284.2 284.2 0.00 0.00 0.00 69 1004.1
20260508045827 44 274 5.2 7.0 0.00 0.20 0.00 69 1004.2
20260508045331 44 280 5.2 7.0 0.00 0.20 0.00 70 1004.1
20260508044835 44 289 5.2 7.0 0.00 0.20 0.00 69 1004.1
20260508044320 44 293 5.2 7.0 0.00 0.20 0.00 69 1004.2
20260508043824 45 287 4.3 5.2 0.00 0.20 0.00 68 1004.3
20260508043329 45 279 3.5 6.1 0.00 0.20 0.00 68 1004.4
20260508042853 45 275 4.3 6.1 0.00 0.20 0.00 66 1004.3
20260508042337 46 278 4.3 6.1 0.00 0.20 0.00 66 1004.3
20260508041820 46 281 3.5 6.1 0.00 0.20 0.00 65 1004.3
20260508041325 47 299 3.5 6.1 0.00 0.20 0.00 64 1004.3
20260508040850 47 286 3.5 6.1 0.00 0.20 0.00 62 1004.3
20260508040338 48 274 3.5 6.1 0.00 0.20 0.00 61 1004.3
20260508035823 48 271 4.3 7.0 0.00 0.24 0.20 60 1004.2
20260508035328 49 268 3.5 7.8 0.00 0.24 0.20 60 1004.2
20260508034833 49 288 3.5 7.8 0.00 0.24 0.20 60 1004.2
20260508034337 49 257 4.3 7.0 0.00 0.24 0.20 60 1004.2
20260508033821 49 282 4.3 7.0 0.00 0.24 0.20 60 1004.2
20260508033324 50 300 4.3 7.0 0.00 0.24 0.20 60 1004.1
20260508032828 50 270 4.3 7.0 0.00 0.24 0.20 60 1004.1
20260508032333 50 286 4.3 7.0 0.00 0.24 0.20 61 1004.0
20260508031837 50 284 3.5 7.0 0.00 0.24 0.20 60 1004.0
20260508031325 51 252 4.3 7.8 0.00 0.24 0.20 60 1004.0
20260508030828 51 257 3.5 8.7 0.00 0.24 0.20 60 1004.1
20260508030332 51 272 4.3 7.8 0.00 0.24 0.20 61 1004.1
20260508025838 51 275 2.6 7.8 0.00 0.27 0.20 62 1004.2
20260508025322 51 267 3.5 8.7 0.00 0.27 0.20 62 1004.1
20260508024826 51 271 4.3 8.7 0.00 0.27 0.20 63 1004.1
20260508024352 51 267 3.5 9.6 0.00 0.27 0.20 65 1004.1
20260508023854 51 276 2.6 7.0 0.00 0.27 0.20 67 1004.1
20260508023339 52 274 4.3 7.8 0.00 0.27 0.20 66 1004.1
20260508022823 52 273 5.2 7.8 0.00 0.27 0.20 66 1004.1
20260508022328 52 263 3.5 6.1 0.00 0.27 0.20 67 1004.1
20260508021852 52 279 3.5 7.8 0.00 0.27 0.20 66 1004.1
20260508021335 52 292 5.2 7.8 0.00 0.27 0.20 66 1004.0
20260508020823 53 282 3.5 8.7 0.00 0.27 0.20 67 1004.0
20260508020328 53 280 3.5 8.7 0.00 0.27 0.20 68 1003.9
20260508015853 53 252 5.2 13.0 0.00 0.27 0.20 69 1004.0
20260508015337 53 306 3.5 13.0 0.00 0.27 0.20 70 1004.0
20260508014840 53 279 3.5 8.7 0.00 0.27 0.20 71 1004.0
20260508014323 53 275 4.3 8.7 0.00 0.27 0.20 71 1004.0
20260508013827 53 268 2.6 6.1 0.00 0.27 0.20 71 1004.0
20260508013331 54 296 3.5 6.1 0.00 0.27 0.20 70 1004.0
20260508012837 54 279 1.7 7.0 0.00 0.27 0.20 71 1004.0
20260508012322 54 302 5.2 7.8 0.00 0.27 0.20 70 1004.0
20260508011847 54 286 3.5 7.0 0.00 0.27 0.20 71 1003.9
20260508011330 54 263 3.5 8.7 0.00 0.27 0.20 70 1003.8
20260508010833 54 277 3.5 8.7 0.00 0.27 0.20 70 1003.8
20260508010323 54 266 4.3 8.7 0.00 0.27 0.20 70 1003.7
20260508005828 54 297 4.3 8.7 0.00 0.27 0.20 70 1003.7
20260508005331 54 253 5.2 8.7 0.00 0.27 0.20 70 1003.6
20260508004836 54 294 3.5 7.8 0.00 0.27 0.20 71 1003.6
20260508004340 54 281 3.5 8.7 0.00 0.27 0.20 72 1003.5
20260508003825 54 302 3.5 8.7 0.00 0.27 0.20 73 1003.5
20260508003329 54 246 4.3 9.6 0.00 0.27 0.20 74 1003.5
20260508002833 53 286 6.1 9.6 0.00 0.27 0.20 76 1003.4
20260508002337 53 275 1.7 3.5 0.00 0.27 0.20 78 1003.4
20260508001822 53 275 1.7 2.6 0.00 0.27 0.20 78 1003.3
20260508001330 53 275 1.7 2.6 0.00 0.27 0.20 77 1003.2
20260508000836 54 275 1.7 2.6 0.00 0.27 0.20 75 1003.0
20260508000320 55 275 1.7 2.6 0.00 0.27 0.20 74 1002.9
20260507235846 55 275 0.9 2.6 0.00 0.27 0.20 72 1002.8
20260507235329 56 275 1.7 6.1 0.00 0.27 0.20 68 1002.8
20260507234833 56 256 3.5 6.1 0.00 0.27 0.20 65 1002.7
20260507234337 56 257 2.6 7.0 0.00 0.27 0.20 62 1002.5
20260507233821 56 258 3.5 6.1 0.00 0.27 0.20 61 1002.4
20260507233326 57 281 2.6 8.7 0.00 0.27 0.20 61 1002.3
20260507232831 57 270 4.3 8.7 0.00 0.27 0.20 60 1002.3
20260507232335 57 317 5.2 9.6 0.00 0.27 0.20 60 1002.2
20260507231859 57 271 6.1 10.4 0.00 0.27 0.20 60 1002.1
20260507231327 57 270 3.5 10.4 0.00 0.27 0.20 59 1002.0
20260507230831 57 313 5.2 12.2 0.00 0.27 0.20 58 1001.9
20260507230335 58 249 4.3 12.2 0.00 0.27 0.20 57 1001.8
20260507225820 58 265 5.2 11.3 0.00 0.27 0.20 56 1001.7
20260507225325 59 278 5.2 11.3 0.00 0.27 0.20 55 1001.7
20260507224849 59 271 5.2 11.3 0.00 0.27 0.20 53 1001.6
20260507224333 60 284 6.1 12.2 0.00 0.27 0.20 51 1001.6
20260507223900 60 258 7.0 12.2 0.00 0.27 0.20 51 1001.5
20260507223323 61 290 0.9 3.5 0.00 0.27 0.20 59 1001.3
20260507222828 61 241 0.9 3.5 0.00 0.27 0.20 57 1001.3
20260507222333 61 240 2.6 3.5 0.00 0.27 0.20 56 1001.3
20260507221858 61 209 1.7 3.5 0.00 0.27 0.20 53 1001.3
20260507221322 62 278 0.9 5.2 0.00 0.27 0.20 48 1001.2
20260507220830 62 248 1.7 5.2 0.00 0.27 0.20 49 1001.2
20260507220333 62 241 2.6 6.1 0.00 0.27 0.20 47 1001.1
20260507215858 62 252 3.5 7.0 0.00 0.27 0.20 46 1001.2
20260507215322 62 261 5.2 7.0 0.00 0.27 0.20 46 1001.1
20260507214847 63 270 3.5 10.4 0.00 0.27 0.20 44 1001.1
20260507214330 63 284 6.1 10.4 0.00 0.27 0.20 42 1001.1
20260507213836 64 273 3.5 7.8 0.00 0.27 0.20 44 1001.0
20260507213320 63 276 3.5 7.8 0.00 0.27 0.20 45 1001.0
20260507212825 63 265 4.3 7.8 0.00 0.27 0.20 44 1001.1
20260507212330 63 263 3.5 6.1 0.00 0.27 0.20 45 1001.1
20260507211835 62 300 3.5 11.3 0.00 0.27 0.20 45 1001.0
20260507211338 63 294 5.2 11.3 0.00 0.27 0.20 43 1001.0
20260507210826 63 277 7.0 10.4 0.00 0.27 0.20 43 1001.0
20260507210350 63 262 5.2 8.7 0.00 0.27 0.20 44 1000.9
20260507205833 63 297 5.2 8.7 0.00 0.27 0.20 42 1000.9
20260507205359 63 290 6.1 11.3 0.00 0.27 0.20 42 1000.8
20260507204822 64 265 7.0 10.4 0.00 0.27 0.20 40 1000.8
20260507204346 65 321 5.2 9.6 0.00 0.27 0.20 39 1000.8
20260507203830 65 313 284.2 284.2 0.00 0.00 0.20 39 1000.6
20260507203335 65 298 6.1 10.4 0.00 0.27 0.20 39 1000.6
20260507202859 65 274 6.1 10.4 0.00 0.27 0.20 40 1000.6
20260507202323 64 304 3.5 7.0 0.00 0.27 0.20 42 1000.5
20260507201828 63 289 0.9 6.1 0.00 0.27 0.20 45 1000.5
20260507201352 63 350 0.9 6.1 0.00 0.27 0.20 46 1000.6
20260507200837 63 256 2.6 7.8 0.00 0.27 0.20 45 1000.7
20260507200321 64 296 4.3 7.8 0.00 0.27 0.20 43 1000.7
20260507195825 65 272 284.2 284.2 0.00 0.00 0.20 43 1000.6
20260507195336 65 252 3.5 6.1 0.00 0.27 0.20 46 1000.6
20260507194900 65 232 1.7 9.6 0.00 0.27 0.20 46 1000.6
20260507194323 64 296 6.1 9.6 0.00 0.27 0.20 45 1000.7
20260507193827 64 213 2.6 6.1 0.00 0.27 0.20 46 1000.9
20260507193333 64 219 3.5 7.8 0.00 0.27 0.20 47 1001.0
20260507192837 63 343 3.5 7.8 0.00 0.27 0.20 47 1001.0
20260507192320 63 275 4.3 7.8 0.00 0.27 0.20 46 1001.1
20260507191825 63 253 3.5 10.4 0.00 0.27 0.20 50 1001.1
20260507191330 62 259 7.0 10.4 0.00 0.27 0.20 47 1001.2
20260507190833 64 234 6.1 9.6 0.00 0.27 0.20 46 1001.1
20260507190340 65 305 3.5 7.8 0.00 0.27 0.20 46 1001.1
20260507185828 64 255 2.6 7.8 0.00 0.27 0.20 50 1001.1
20260507185333 63 315 5.2 10.4 0.00 0.27 0.20 47 1001.1
20260507184838 63 250 5.2 7.8 0.00 0.27 0.20 50 1001.1
20260507184343 63 67 3.5 8.7 0.00 0.27 0.20 47 1001.2
20260507183847 63 268 3.5 9.6 0.00 0.27 0.20 51 1001.3
20260507183330 62 281 6.1 11.3 0.00 0.27 0.20 47 1001.4
20260507182835 62 292 4.3 12.2 0.00 0.27 0.20 48 1001.4
20260507182339 63 259 7.0 12.2 0.00 0.27 0.20 45 1001.4
20260507181822 64 268 6.1 12.2 0.00 0.27 0.20 49 1001.4
20260507181328 63 279 6.1 15.6 0.00 0.27 0.20 50 1001.3
20260507180833 62 274 7.8 11.3 0.00 0.27 0.20 49 1001.3
20260507180337 62 303 7.0 10.4 0.00 0.27 0.20 48 1001.2
20260507175825 63 286 6.1 10.4 0.00 0.27 0.20 49 1001.3
20260507175330 63 319 6.1 11.3 0.00 0.27 0.20 48 1001.3
20260507174833 63 275 4.3 15.6 0.00 0.27 0.20 49 1001.3
20260507174359 62 269 6.1 15.6 0.00 0.27 0.20 51 1001.4
20260507173822 62 260 7.0 10.4 0.00 0.27 0.20 51 1001.4
20260507173328 62 300 6.1 12.2 0.00 0.27 0.20 51 1001.3
20260507172832 62 302 2.6 7.8 0.00 0.27 0.20 53 1001.5
20260507172358 62 327 1.7 9.6 0.00 0.27 0.20 53 1001.6
20260507171842 62 289 6.1 12.2 0.00 0.27 0.20 53 1001.6
20260507171324 61 219 5.2 12.2 0.00 0.27 0.20 53 1001.6
20260507170830 61 252 7.0 15.6 0.00 0.27 0.20 54 1001.7
20260507170334 61 276 8.7 12.2 0.00 0.27 0.20 52 1001.6
20260507165839 61 25 3.5 8.7 0.00 0.27 0.20 53 1001.7
20260507165326 61 327 4.3 8.7 0.00 0.27 0.20 53 1001.8
20260507164831 61 175 3.5 7.0 0.00 0.27 0.20 55 1001.9
20260507164356 61 38 1.7 9.6 0.00 0.27 0.20 61 1001.9
20260507163838 60 315 4.3 9.6 0.00 0.27 0.20 58 1002.0
20260507163323 60 114 1.7 9.6 0.00 0.27 0.20 60 1002.0
20260507162847 60 270 1.7 8.7 0.00 0.27 0.20 62 1002.1
20260507162331 59 304 4.3 10.4 0.00 0.27 0.20 60 1002.2
20260507161835 60 294 5.2 11.3 0.00 0.27 0.20 60 1002.3
20260507161401 59 213 2.6 11.3 0.00 0.27 0.20 61 1002.4
20260507160824 59 296 5.2 8.7 0.00 0.27 0.20 63 1002.5
20260507160328 59 313 4.3 13.0 0.00 0.27 0.20 66 1002.6
20260507155852 59 340 7.0 13.0 0.00 0.27 0.20 65 1002.6
20260507155337 58 258 3.5 9.6 0.00 0.27 0.20 67 1002.6
20260507154821 58 298 5.2 9.6 0.00 0.27 0.20 68 1002.7
20260507154346 59 294 2.6 7.0 0.00 0.27 0.20 69 1002.6
20260507153834 58 182 1.7 10.4 0.00 0.27 0.20 71 1002.5
20260507153339 58 305 5.2 10.4 0.00 0.27 0.20 69 1002.7
20260507152823 58 277 2.6 7.8 0.00 0.27 0.20 71 1002.8
20260507152326 58 286 2.6 10.4 0.00 0.27 0.20 73 1002.7
20260507151852 57 319 6.1 10.4 0.00 0.27 0.20 71 1002.8
20260507151334 56 36 4.3 9.6 0.00 0.27 0.20 72 1002.9
20260507150859 56 355 5.2 9.6 0.00 0.27 0.20 73 1002.9
20260507150323 56 300 5.2 10.4 0.00 0.27 0.20 73 1003.0
20260507145828 56 291 2.6 12.2 0.00 0.27 0.20 73 1003.1
20260507145332 56 259 6.1 8.7 0.00 0.27 0.20 74 1003.2
20260507144836 56 168 2.6 8.7 0.00 0.27 0.20 77 1003.4
20260507144321 55 325 5.2 10.4 0.00 0.27 0.20 75 1003.4
20260507143830 55 298 6.1 9.6 0.00 0.27 0.20 74 1003.1
20260507143334 55 284 4.3 10.4 0.00 0.27 0.20 76 1003.2
20260507142839 55 309 5.2 10.4 0.00 0.27 0.20 79 1003.4
20260507142322 54 311 6.1 9.6 0.00 0.27 0.20 79 1003.5
20260507141826 54 149 2.6 13.9 0.00 0.27 0.20 81 1003.6
20260507141331 54 292 6.1 13.9 0.00 0.27 0.20 81 1003.8
20260507140836 54 267 4.3 8.7 0.00 0.27 0.20 83 1003.8
20260507140320 53 277 4.3 8.7 0.00 0.27 0.20 83 1003.8
20260507135824 54 278 3.5 11.3 0.00 0.27 0.20 85 1003.7
20260507135329 53 280 6.1 11.3 0.00 0.27 0.20 85 1003.6
20260507134833 52 291 5.2 7.8 0.00 0.27 0.20 87 1003.6
20260507134322 51 309 3.5 7.0 0.00 0.27 0.20 87 1003.6
20260507133846 51 278 4.3 7.0 0.00 0.27 0.20 87 1003.7
20260507133329 51 335 1.7 7.0 0.00 0.27 0.20 88 1003.7
20260507132835 51 282 4.3 7.8 0.00 0.27 0.20 88 1003.9
20260507132359 51 292 3.5 7.8 0.00 0.27 0.20 89 1003.8
20260507131823 51 298 2.6 7.0 0.00 0.27 0.20 90 1003.7
20260507131348 51 319 4.3 7.0 0.00 0.27 0.20 89 1003.9
20260507130832 50 279 4.3 7.8 0.00 0.27 0.20 90 1003.8
20260507130336 50 259 5.2 7.8 0.00 0.27 0.20 90 1003.6
20260507125821 50 297 3.5 7.0 0.00 0.27 0.20 90 1003.3
20260507125325 49 266 2.6 7.8 0.00 0.27 0.20 91 1003.2
20260507124831 49 295 4.3 7.8 0.00 0.27 0.20 91 1003.4
20260507124319 49 256 284.2 284.2 0.00 0.00 0.20 91 1003.9
20260507123825 49 277 5.2 8.7 0.00 0.27 0.20 91 1003.9
20260507123330 49 292 5.2 8.7 0.00 0.27 0.20 91 1004.1
20260507122835 50 253 3.5 7.0 0.00 0.27 0.20 92 1003.8
20260507122338 50 298 3.5 6.1 0.00 0.27 0.20 92 1004.1
20260507121823 50 283 3.5 6.1 0.00 0.27 0.20 92 1004.5
20260507121327 50 292 2.6 6.1 0.00 0.27 0.20 92 1004.5
20260507120832 50 273 2.6 7.8 0.00 0.27 0.20 92 1004.0
20260507120337 49 288 3.5 8.7 0.00 0.27 0.20 92 1004.2
20260507115821 50 273 5.2 8.7 0.00 0.27 0.20 92 1004.4
20260507115325 50 266 2.6 7.8 0.00 0.27 0.20 93 1004.4
20260507114834 50 272 2.6 8.7 0.00 0.27 0.20 92 1004.0
20260507114338 50 277 4.3 8.7 0.00 0.27 0.20 93 1004.1
20260507113822 50 306 4.3 7.0 0.00 0.27 0.20 93 1004.0
20260507112822 50 326 3.5 8.7 0.00 0.27 0.20 93 1003.6
20260507112347 50 298 4.3 8.7 0.00 0.27 0.20 93 1003.5
20260507111851 50 243 5.2 8.7 0.00 0.27 0.20 93 1003.4
20260507111338 50 230 1.7 7.0 0.00 0.27 0.20 94 1003.4
20260507110820 50 275 3.5 7.0 0.00 0.27 0.20 94 1003.6
20260507110324 50 298 2.6 7.8 0.00 0.27 0.20 93 1003.3
20260507105828 50 245 4.3 7.8 0.00 0.27 0.20 93 1003.3
20260507105332 50 306 1.7 5.2 0.00 0.27 0.20 93 1003.2
20260507104822 50 252 1.7 6.1 0.00 0.27 0.20 94 1003.4
20260507104327 50 280 2.6 3.5 0.00 0.27 0.20 94 1003.3
20260507103832 50 308 1.7 4.3 0.00 0.27 0.20 93 1003.3
20260507103336 50 274 3.5 7.0 0.00 0.27 0.20 93 1003.5
20260507102839 50 260 2.6 5.2 0.00 0.27 0.20 93 1003.5
20260507102324 50 288 2.6 7.0 0.00 0.27 0.20 94 1003.3
20260507101828 50 274 3.5 7.0 0.00 0.27 0.20 94 1003.3
20260507101330 50 263 3.5 7.0 0.00 0.27 0.20 94 1003.6